{"data":{"norad_id":46359,"intl_designator":"2020-062AL","name":"STARLINK-1707","alt_names":[],"object_type":"PAYLOAD","status":"ACTIVE","operator":null,"country":"US","launch_date":"2020-09-03","launch_site_code":"AFETR","launch_vehicle":null,"mission":null,"orbit_class":"UNKNOWN","rcs_meters":null,"size_class":null,"mass_kg":null,"dimensions":null,"purposes":["comms"],"wikipedia_slug":null,"has_3d_model":false,"image_url":null,"decayed_at":null,"tle_current":{"epoch":"2026-07-11T01:14:44.574720Z","epoch_age_seconds":6195041,"freshness":"OLD","line1":"1 46359U 20062AL  26192.05190480  .08024522  12439-4  37730-3 0  9993","line2":"2 46359  53.0004  13.4681 0011304 274.7289  85.2467 16.42151990325260","mean_motion":16.4215199,"eccentricity":0.0011304,"inclination_deg":53.0004,"raan_deg":13.4681,"arg_perigee_deg":274.7289,"mean_anomaly_deg":85.2467,"bstar":0.0003773,"rev_number":32526,"period_min":87.689812439347,"perigee_km":152.69336311688,"apogee_km":167.47497353423,"semimajor_km":6538.2211683256,"source":"CELESTRAK","updated_at":"2026-07-11T09:00:51.178595Z"}}}